Home > Weather > San Antonio > Past weeks

Flag for U.S.A. Weather for the Past 2 Weeks in San Antonio, Texas, U.S.A.

Now
67 °F

Clear.


Feels Like: 67 °F
Forecast: 40 / 74 °F
Wind: No wind

Location: San Antonio International Airport

Current Time: Feb 9, 2016 at 7:38:09 PM

Latest Report: Feb 9, 2016 at 6:51 PM


Visibility: 10 mi

Pressure: 30.23 "Hg

Humidity: 22%

Dew point: 27 °F

Location of San AntonioLocation

Historic Weather in San Antonio — Graph

°F

San Antonio Temperature Yesterday

Maximum temperature yesterday: 64 °F (at 3:51 PM)
Minimum temperature yesterday: 40 °F (at 11:51 PM)
Average temperature yesterday: 53 °F

High & Low Weather Summary for the Past Weeks

 TemperatureHumidityPressure
High83 °F (Jan 31, 4:51 PM)100% (Feb 1, 7:51 AM)30.49 "Hg (Feb 1, 7:51 AM)
Low31 °F (Feb 7, 6:51 AM)16% (Feb 8, 11:51 AM)29.49 "Hg (Feb 1, 7:51 PM)
Average53 °F52%30.10 "Hg
* Reported Jan 25 5:51 PM — Feb 9 5:51 PM, San Antonio, Weather by CustomWeather, © 2016

Note: Actual official high and low records may vary slightly from our data, if they occured in-between our weather recording intervals... More about our weather records

Advertising

San Antonio Weather History for the Previous 24 Hours

 ConditionsComfort  
Time TempWeatherWind HumidityBarometerVisibility
5:51 PM
Tue, Feb 9
69 °FSunny.6 mph21%30.22 "Hg10 mi
4:51 PM72 °FSunny.8 mph19%30.21 "Hg10 mi
3:51 PM72 °FSunny.13 mph19%30.22 "Hg10 mi
2:51 PM72 °FSunny.9 mph19%30.23 "Hg10 mi
1:51 PM69 °FSunny.7 mph22%30.25 "Hg10 mi
12:51 PM68 °FSunny.10 mph23%30.30 "Hg10 mi
11:51 AM65 °FSunny.5 mph23%30.34 "Hg10 mi
10:51 AM61 °FSunny.6 mph25%30.37 "Hg10 mi
9:51 AM56 °FSunny.9 mph28%30.40 "Hg10 mi
8:51 AM49 °FSunny.7 mph39%30.38 "Hg10 mi
7:51 AM41 °FSunny.9 mph49%30.37 "Hg10 mi
6:51 AM38 °FClear.7 mph55%30.37 "Hg10 mi
5:51 AM41 °FClear.7 mph47%30.34 "Hg10 mi
4:51 AM39 °FClear.8 mph53%30.32 "Hg10 mi
3:51 AM38 °FClear.6 mph55%30.31 "Hg10 mi
2:51 AM38 °FClear.8 mph55%30.32 "Hg10 mi
1:51 AM39 °FClear.8 mph53%30.32 "Hg10 mi
12:51 AM40 °FClear.7 mph55%30.34 "Hg10 mi
11:51 PM
Mon, Feb 8
40 °FClear.7 mph55%30.34 "Hg10 mi
10:51 PM42 °FPassing clouds.7 mph51%30.34 "Hg10 mi
9:51 PM44 °FPassing clouds.7 mph47%30.33 "Hg10 mi
8:51 PM47 °FPassing clouds.6 mph42%30.33 "Hg10 mi
7:51 PM53 °FPassing clouds.6 mph30%30.30 "Hg10 mi
Weather by CustomWeather, © 2016

See weather overviewHow to use our weather pages